KE7WB Weather Reports


time (UTC)temp
C
wind
direction
speed
KPH
gust
KPH
rain 1hr
cm
rain 24hr
cm
rain mn
cm
humidity
%
barometer
mb
20260503212003 26 315 4.8 16.1 0.00 0.00 0.00 35 1010.7
20260503211503 26 330 4.8 16.1 0.00 0.00 0.00 34 1011.0
20260503211003 26 354 3.2 9.7 0.00 0.00 0.00 34 1010.7
20260503210503 26 313 4.8 12.9 0.00 0.00 0.00 35 1011.0
20260503210003 26 319 4.8 12.9 0.00 0.00 0.00 35 1010.7
20260503205503 26 324 4.8 12.9 0.00 0.00 0.00 35 1011.0
20260503205003 25 331 4.8 12.9 0.00 0.00 0.00 35 1011.0
20260503204503 26 328 4.8 9.7 0.00 0.00 0.00 35 1011.0
20260503204218 26 333 4.8 9.7 0.00 0.00 0.00 33 1011.4
20260503203503 26 313 4.8 14.5 0.00 0.00 0.00 35 1011.4
20260503203003 25 315 4.8 14.5 0.00 0.00 0.00 36 1011.4
20260503202503 25 330 4.8 12.9 0.00 0.00 0.00 37 1011.7
20260503202003 25 358 4.8 12.9 0.00 0.00 0.00 37 1011.4
20260503201503 25 4 4.8 16.1 0.00 0.00 0.00 37 1011.7
20260503201003 25 27 6.4 17.7 0.00 0.00 0.00 38 1011.7
20260503200503 25 61 3.2 17.7 0.00 0.00 0.00 38 1011.4
20260503200218 25 53 3.2 12.9 0.00 0.00 0.00 38 1011.4
20260503195503 25 75 4.8 16.1 0.00 0.00 0.00 40 1011.7
20260503195003 24 50 4.8 16.1 0.00 0.00 0.00 41 1011.7
20260503194503 24 346 4.8 14.5 0.00 0.00 0.00 41 1012.1
20260503194218 25 347 3.2 9.7 0.00 0.00 0.00 40 1012.1
20260503193503 24 333 4.8 14.5 0.00 0.00 0.00 42 1012.1
20260503193003 23 300 4.8 16.1 0.00 0.00 0.00 43 1012.1
20260503192503 23 302 6.4 16.1 0.00 0.00 0.00 43 1012.4
20260503192003 23 316 4.8 11.3 0.00 0.00 0.00 44 1012.1
20260503191503 23 329 4.8 14.5 0.00 0.00 0.00 43 1012.4
20260503191003 22 320 4.8 14.5 0.00 0.00 0.00 44 1012.4
20260503190503 23 310 4.8 14.5 0.00 0.00 0.00 43 1012.4
20260503190003 23 313 4.8 11.3 0.00 0.00 0.00 44 1012.4
20260503185716 23 307 3.2 9.7 0.00 0.00 0.00 43 1012.4
20260503185003 23 355 4.8 14.5 0.00 0.00 0.00 43 1012.4
20260503184503 23 360 4.8 14.5 0.00 0.00 0.00 43 1012.4
20260503184003 22 338 4.8 12.9 0.00 0.00 0.00 45 1012.7
20260503183503 22 352 4.8 12.9 0.00 0.00 0.00 44 1012.7
20260503183003 22 328 3.2 9.7 0.00 0.00 0.00 45 1012.7
20260503182503 22 305 4.8 11.3 0.00 0.00 0.00 45 1012.7
20260503182003 22 336 4.8 12.9 0.00 0.00 0.00 46 1012.7
20260503181504 22 312 6.4 14.5 0.00 0.00 0.00 46 1012.7
20260503181003 21 288 4.8 14.5 0.00 0.00 0.00 46 1013.1
20260503180503 22 330 4.8 12.9 0.00 0.00 0.00 46 1013.1
20260503180003 22 340 4.8 14.5 0.00 0.00 0.00 46 1012.7
20260503175503 22 352 4.8 14.5 0.00 0.00 0.00 45 1012.7
20260503175003 22 80 4.8 9.7 0.00 0.00 0.00 46 1013.1
20260503174503 21 349 4.8 11.3 0.00 0.00 0.00 47 1013.1
20260503174003 21 324 4.8 17.7 0.00 0.00 0.00 48 1013.1
20260503173503 21 317 4.8 17.7 0.00 0.00 0.00 50 1013.1
20260503173217 21 309 4.8 9.7 0.00 0.00 0.00 48 1012.7
20260503172503 21 318 4.8 11.3 0.00 0.00 0.00 48 1013.1
20260503172003 21 6 3.2 11.3 0.00 0.00 0.00 48 1013.1
20260503171503 21 37 3.2 8.0 0.00 0.00 0.00 48 1013.4
20260503171003 21 20 3.2 6.4 0.00 0.00 0.00 52 1013.4
20260503170503 20 315 3.2 9.7 0.00 0.00 0.00 53 1013.4
20260503151003 15 82 6.4 8.0 0.00 0.00 0.00 72 1013.4
20260503150503 15 85 6.4 8.0 0.00 0.00 0.00 72 1013.8
20260503131217 10 104 3.2 6.4 0.00 0.00 0.00 89 1013.4
20260503130503 10 74 3.2 6.4 0.00 0.00 0.00 89 1013.4
20260503110503 11 100 3.2 4.8 0.00 0.00 0.00 81 1013.8
20260503100218 11 70 3.2 4.8 0.00 0.00 0.00 78 1013.8
20260503090503 12 72 3.2 3.2 0.00 0.00 0.00 77 1013.8
20260503081503 12 83 1.6 3.2 0.00 0.00 0.00 72 1013.8
20260503081003 12 83 1.6 3.2 0.00 0.00 0.00 72 1013.8
20260503080503 12 82 1.6 3.2 0.00 0.00 0.00 72 1013.8
20260503072503 12 91 1.6 3.2 0.00 0.00 0.00 73 1013.8
20260503072003 12 90 3.2 6.4 0.00 0.00 0.00 72 1013.8
20260503071503 12 90 3.2 6.4 0.00 0.00 0.00 72 1013.8
20260503071003 12 89 3.2 6.4 0.00 0.00 0.00 73 1013.8
20260503070503 13 86 3.2 3.2 0.00 0.00 0.00 71 1013.4
20260503054503 15 86 3.2 4.8 0.00 0.00 0.00 63 1013.4
20260503054003 15 84 3.2 4.8 0.00 0.00 0.00 61 1013.8
20260503053717 15 82 3.2 4.8 0.00 0.00 0.00 59 1013.4
20260503053003 15 67 0.0 3.2 0.00 0.00 0.00 58 1013.4
20260503052717 15 66 0.0 3.2 0.00 0.00 0.00 58 1013.4
20260503052003 15 71 1.6 3.2 0.00 0.00 0.00 59 1013.8
20260503051503 16 73 3.2 3.2 0.00 0.00 0.00 58 1013.8
20260503051003 16 75 1.6 3.2 0.00 0.00 0.00 57 1013.8
20260503050717 16 78 1.6 3.2 0.00 0.00 0.00 56 1013.4
20260503050003 16 83 1.6 3.2 0.00 0.00 0.00 56 1013.4
20260503045503 16 86 1.6 3.2 0.00 0.00 0.00 56 1013.8
20260503045218 16 85 1.6 3.2 0.00 0.00 0.00 55 1013.4
20260503044503 17 75 1.6 3.2 0.00 0.00 0.00 54 1013.4
20260503044003 17 76 1.6 3.2 0.00 0.00 0.00 53 1013.4
20260503043717 17 73 0.0 3.2 0.00 0.00 0.00 53 1013.4
20260503043003 17 83 0.0 3.2 0.00 0.00 0.00 54 1013.1
20260503042503 17 72 0.0 3.2 0.00 0.00 0.00 53 1013.1
20260503042003 17 79 1.6 3.2 0.00 0.00 0.00 52 1013.1
20260503041717 17 86 1.6 3.2 0.00 0.00 0.00 51 1013.1
20260503041003 18 96 1.6 3.2 0.00 0.00 0.00 50 1013.1
20260503040503 18 83 1.6 3.2 0.00 0.00 0.00 47 1012.7
20260503040218 18 80 1.6 3.2 0.00 0.00 0.00 48 1013.1
20260503035503 19 82 3.2 4.8 0.00 0.00 0.00 46 1012.7
20260503035003 19 61 3.2 6.4 0.00 0.00 0.00 45 1012.4
20260503034503 19 61 3.2 6.4 0.00 0.00 0.00 45 1012.7
20260503034003 19 52 3.2 6.4 0.00 0.00 0.00 45 1012.7
20260503033503 20 41 3.2 6.4 0.00 0.00 0.00 45 1012.4
20260503033003 20 64 3.2 4.8 0.00 0.00 0.00 44 1012.4
20260503032716 20 73 3.2 6.4 0.00 0.00 0.00 44 1012.4
20260503032003 20 53 3.2 6.4 0.00 0.00 0.00 44 1012.4
20260503031503 20 28 3.2 8.0 0.00 0.00 0.00 43 1012.1
20260503031003 20 33 3.2 8.0 0.00 0.00 0.00 43 1012.4
20260503030503 20 24 3.2 16.1 0.00 0.00 0.00 43 1012.1
20260503030217 20 25 3.2 16.1 0.00 0.00 0.00 43 1012.1
20260503025503 21 37 1.6 6.4 0.00 0.00 0.00 43 1012.1
20260503025003 21 48 3.2 6.4 0.00 0.00 0.00 43 1012.4
20260503024503 21 50 3.2 6.4 0.00 0.00 0.00 43 1012.1
20260503024003 21 27 3.2 8.0 0.00 0.00 0.00 43 1012.1
20260503023503 21 357 4.8 16.1 0.00 0.00 0.00 43 1012.1
20260503023003 21 6 6.4 16.1 0.00 0.00 0.00 42 1012.1
20260503022503 21 11 4.8 14.5 0.00 0.00 0.00 43 1012.1
20260503022003 21 8 4.8 14.5 0.00 0.00 0.00 43 1012.1
20260503021503 21 45 4.8 12.9 0.00 0.00 0.00 44 1012.1
20260503021003 22 75 3.2 8.0 0.00 0.00 0.00 44 1012.1
20260503020503 22 33 3.2 8.0 0.00 0.00 0.00 45 1012.1
20260503020003 22 9 3.2 8.0 0.00 0.00 0.00 44 1012.1
20260503015718 22 28 3.2 6.4 0.00 0.00 0.00 46 1012.1
20260503015003 22 335 4.8 17.7 0.00 0.00 0.00 46 1012.4
20260503014503 22 338 6.4 17.7 0.00 0.00 0.00 46 1012.4
20260503014217 22 334 6.4 17.7 0.00 0.00 0.00 46 1012.4
20260503013503 22 342 4.8 16.1 0.00 0.00 0.00 46 1012.1
20260503013003 23 352 4.8 11.3 0.00 0.00 0.00 46 1012.1
20260503012503 23 338 4.8 11.3 0.00 0.00 0.00 45 1012.1
20260503012003 23 329 4.8 12.9 0.00 0.00 0.00 45 1012.1
20260503011503 23 325 4.8 12.9 0.00 0.00 0.00 45 1012.1
20260503011003 23 333 4.8 17.7 0.00 0.00 0.00 45 1012.1
20260503010503 23 326 4.8 17.7 0.00 0.00 0.00 45 1012.4
20260503010003 23 308 4.8 19.3 0.00 0.00 0.00 46 1012.1
20260503005503 23 311 4.8 19.3 0.00 0.00 0.00 45 1012.1
20260503005003 23 335 4.8 22.5 0.00 0.00 0.00 46 1012.4
20260503004718 23 328 6.4 22.5 0.00 0.00 0.00 46 1012.4
20260503004003 23 322 6.4 19.3 0.00 0.00 0.00 46 1012.4
20260503003503 23 317 4.8 16.1 0.00 0.00 0.00 47 1012.4
20260503003003 23 316 6.4 14.5 0.00 0.00 0.00 47 1012.4
20260503002503 23 333 4.8 14.5 0.00 0.00 0.00 47 1012.4
20260503002003 24 332 4.8 14.5 0.00 0.00 0.00 47 1012.4
20260503001503 23 331 6.4 19.3 0.00 0.00 0.00 48 1012.1
20260503001003 23 322 8.0 24.1 0.00 0.00 0.00 49 1012.4
20260503000717 23 322 8.0 24.1 0.00 0.00 0.00 48 1012.4
20260503000003 23 347 6.4 16.1 0.00 0.00 0.00 47 1012.4
20260502235503 23 17 6.4 16.1 0.00 0.00 0.00 48 1012.4
20260502235003 23 33 4.8 16.1 0.00 0.00 0.00 48 1012.4
20260502234503 23 72 4.8 17.7 0.00 0.00 0.00 49 1012.4
20260502234003 23 60 4.8 17.7 0.00 0.00 0.00 51 1012.7
20260502233503 23 349 4.8 17.7 0.00 0.00 0.00 50 1012.7
20260502233003 23 358 4.8 17.7 0.00 0.00 0.00 49 1012.7
20260502232503 23 358 4.8 14.5 0.00 0.00 0.00 49 1013.1
20260502232003 23 332 6.4 17.7 0.00 0.00 0.00 49 1012.7
20260502231503 22 320 6.4 17.7 0.00 0.00 0.00 49 1013.1
20260502231003 22 317 6.4 22.5 0.00 0.00 0.00 50 1013.4
20260502230717 22 322 6.4 22.5 0.00 0.00 0.00 50 1013.4
20260502225503 22 308 6.4 17.7 0.00 0.00 0.00 48 1013.4
20260502225003 22 302 4.8 17.7 0.00 0.00 0.00 48 1013.4
20260502224503 23 313 6.4 17.7 0.00 0.00 0.00 46 1013.4
20260502224003 22 351 6.4 17.7 0.00 0.00 0.00 47 1013.4
20260502223503 23 52 6.4 17.7 0.00 0.00 0.00 46 1013.4
20260502223003 23 64 6.4 16.1 0.00 0.00 0.00 46 1013.4
20260502222503 23 43 4.8 16.1 0.00 0.00 0.00 46 1013.4
20260502222218 22 10 6.4 16.1 0.00 0.00 0.00 46 1013.4
20260502221503 22 340 6.4 16.1 0.00 0.00 0.00 45 1013.8
20260502221003 22 344 4.8 14.5 0.00 0.00 0.00 45 1013.8
20260502220503 22 356 6.4 17.7 0.00 0.00 0.00 45 1013.8
20260502220217 22 32 6.4 17.7 0.00 0.00 0.00 45 1013.8
20260502215503 23 78 4.8 12.9 0.00 0.00 0.00 45 1014.1
20260502215003 22 11 4.8 12.9 0.00 0.00 0.00 47 1013.8
20260502214503 22 357 4.8 16.1 0.00 0.00 0.00 47 1014.1
20260502214217 22 354 4.8 16.1 0.00 0.00 0.00 49 1014.1
20260502213503 22 342 6.4 22.5 0.00 0.00 0.00 52 1014.1
20260502213003 22 337 6.4 22.5 0.00 0.00 0.00 53 1014.1
20260502212503 21 331 8.0 22.5 0.00 0.00 0.00 55 1014.5